�������l�o���
Date,Time,MP-1(��Sv/h),MP-2(��Sv/h),MP-3(��Sv/h),MP-4(��Sv/h),MP-5(��Sv/h),MP-6(��Sv/h),MP-7(��Sv/h),MP-8(��Sv/h),����,����(m/s),���J
2021/04/05,00:00,0.621,0.904,0.581,1.117,0.792,0.373,0.647,0.608,��쐼,4.0,�L
2021/04/05,00:10,0.619,0.903,0.580,1.116,0.793,0.373,0.647,0.608,��쐼,3.5,�L
2021/04/05,00:20,0.620,0.906,0.580,1.116,0.792,0.372,0.647,0.609,�쐼,3.7,�L
2021/04/05,00:30,0.620,0.903,0.580,1.114,0.793,0.372,0.647,0.608,�쐼,3.6,�L
2021/04/05,00:40,0.618,0.902,0.580,1.114,0.793,0.370,0.647,0.607,�쐼,4.1,��
2021/04/05,00:50,0.618,0.903,0.579,1.114,0.793,0.371,0.647,0.608,��쐼,5.4,��
2021/04/05,01:00,0.618,0.902,0.580,1.115,0.793,0.371,0.646,0.609,��쐼,4.0,��
2021/04/05,01:10,0.619,0.901,0.581,1.114,0.793,0.370,0.646,0.608,��쐼,2.5,�L
2021/04/05,01:20,0.618,0.900,0.577,1.118,0.793,0.371,0.648,0.609,��,1.5,�L
2021/04/05,01:30,0.617,0.900,0.578,1.115,0.792,0.372,0.646,0.609,�k�k��,2.8,��
2021/04/05,01:40,0.620,0.903,0.579,1.116,0.792,0.370,0.647,0.608,�k��,3.6,��
2021/04/05,01:50,0.618,0.902,0.577,1.115,0.791,0.370,0.647,0.607,�k�k��,2.6,��
2021/04/05,02:00,0.619,0.903,0.578,1.115,0.792,0.372,0.648,0.608,�k��,2.6,��
2021/04/05,02:10,0.618,0.901,0.579,1.114,0.795,0.370,0.648,0.609,�k��,3.9,��
2021/04/05,02:20,0.619,0.902,0.578,1.115,0.792,0.370,0.646,0.608,���k��,3.9,��
2021/04/05,02:30,0.619,0.902,0.578,1.115,0.793,0.370,0.649,0.607,�k��,6.0,��
2021/04/05,02:40,0.618,0.904,0.578,1.115,0.793,0.372,0.647,0.609,�k��,7.6,��
2021/04/05,02:50,0.617,0.900,0.578,1.116,0.792,0.372,0.647,0.608,���k��,5.8,��
2021/04/05,03:00,0.617,0.903,0.580,1.116,0.795,0.370,0.646,0.607,�k��,4.0,��
2021/04/05,03:10,0.618,0.904,0.580,1.117,0.794,0.371,0.646,0.608,�k��,4.7,��
2021/04/05,03:20,0.618,0.904,0.579,1.116,0.792,0.369,0.647,0.608,�k��,5.2,��
2021/04/05,03:30,0.618,0.902,0.579,1.117,0.794,0.369,0.646,0.607,�k,4.6,��
2021/04/05,03:40,0.618,0.902,0.577,1.115,0.794,0.370,0.645,0.606,�k�k��,7.4,��
2021/04/05,03:50,0.618,0.905,0.578,1.115,0.794,0.371,0.646,0.607,�k,7.1,��
2021/04/05,04:00,0.618,0.902,0.578,1.118,0.793,0.369,0.645,0.607,�k�k��,8.3,��
2021/04/05,04:10,0.620,0.903,0.578,1.116,0.793,0.369,0.645,0.607,�k�k��,7.3,��
2021/04/05,04:20,0.615,0.903,0.578,1.114,0.791,0.368,0.646,0.609,�k�k��,7.0,��
2021/04/05,04:30,0.617,0.903,0.576,1.117,0.790,0.369,0.645,0.606,�k,7.7,��
2021/04/05,04:40,0.618,0.905,0.578,1.114,0.792,0.369,0.646,0.609,�k,7.6,�L
2021/04/05,04:50,0.618,0.902,0.578,1.116,0.793,0.370,0.645,0.609,�k,6.6,�L
2021/04/05,05:00,0.616,0.903,0.577,1.115,0.792,0.368,0.645,0.607,�k,7.7,�L
2021/04/05,05:10,0.616,0.906,0.578,1.114,0.793,0.370,0.647,0.608,�k,7.4,�L
2021/04/05,05:20,0.617,0.904,0.576,1.116,0.793,0.369,0.645,0.609,�k,6.3,��
2021/04/05,05:30,0.618,0.905,0.577,1.114,0.789,0.369,0.645,0.608,�k,5.5,��
2021/04/05,05:40,0.618,0.903,0.577,1.115,0.793,0.371,0.646,0.607,�k�k��,5.9,��
2021/04/05,05:50,0.618,0.903,0.576,1.115,0.792,0.368,0.647,0.608,�k�k��,6.5,��
2021/04/05,06:00,0.617,0.905,0.577,1.118,0.792,0.369,0.647,0.610,�k�k��,5.6,��
2021/04/05,06:10,0.617,0.904,0.579,1.116,0.796,0.368,0.647,0.607,�k�k��,5.5,��
2021/04/05,06:20,0.617,0.904,0.579,1.117,0.793,0.370,0.644,0.609,�k�k��,5.8,�L
2021/04/05,06:30,0.618,0.904,0.579,1.116,0.795,0.368,0.647,0.609,�k�k��,6.8,�L
2021/04/05,06:40,0.617,0.903,0.579,1.117,0.794,0.372,0.646,0.609,�k�k��,8.9,��
2021/04/05,06:50,0.617,0.906,0.578,1.118,0.794,0.368,0.647,0.608,�k�k��,10.0,�L
2021/04/05,07:00,0.618,0.903,0.578,1.116,0.794,0.370,0.647,0.609,�k�k��,10.8,�L
2021/04/05,07:10,0.619,0.902,0.578,1.114,0.791,0.371,0.646,0.608,�k�k��,10.9,�L
2021/04/05,07:20,0.618,0.903,0.579,1.117,0.791,0.370,0.645,0.608,�k�k��,10.5,�L
2021/04/05,07:30,0.619,0.902,0.578,1.114,0.790,0.368,0.645,0.609,�k�k��,9.8,�L
2021/04/05,07:40,0.615,0.901,0.578,1.116,0.794,0.370,0.646,0.607,�k�k��,9.4,�L
2021/04/05,07:50,0.616,0.901,0.576,1.117,0.792,0.369,0.645,0.608,�k�k��,9.2,��
2021/04/05,08:00,0.615,0.903,0.577,1.117,0.792,0.370,0.644,0.605,�k�k��,9.2,��
2021/04/05,08:10,0.615,0.904,0.575,1.115,0.790,0.370,0.644,0.609,�k�k��,10.9,��
2021/04/05,08:20,0.617,0.901,0.579,1.115,0.792,0.369,0.645,0.608,�k�k��,11.0,��
2021/04/05,08:30,0.617,0.902,0.576,1.116,0.792,0.369,0.646,0.607,�k�k��,11.3,�L
2021/04/05,08:40,0.617,0.901,0.576,1.114,0.792,0.368,0.643,0.608,�k�k��,10.8,��
2021/04/05,08:50,0.617,0.902,0.576,1.114,0.792,0.369,0.643,0.609,�k�k��,9.9,�L
2021/04/05,09:00,0.618,0.899,0.575,1.117,0.794,0.367,0.644,0.608,�k�k��,10.6,�L
2021/04/05,09:10,0.618,0.899,0.576,1.115,0.791,0.368,0.643,0.608,�k�k��,10.6,�L
2021/04/05,09:20,0.617,0.900,0.577,1.114,0.791,0.369,0.642,0.607,�k�k��,9.7,�L
2021/04/05,09:30,0.618,0.900,0.577,1.116,0.790,0.369,0.644,0.608,�k�k��,10.3,�L
2021/04/05,09:40,0.617,0.900,0.577,1.115,0.792,0.369,0.645,0.608,�k�k��,10.6,�L
2021/04/05,09:50,0.618,0.898,0.576,1.116,0.791,0.368,0.643,0.607,�k�k��,10.9,�L
2021/04/05,10:00,0.619,0.899,0.578,1.115,0.792,0.369,0.644,0.609,�k�k��,9.5,�L
2021/04/05,10:10,0.617,0.900,0.576,1.116,0.793,0.370,0.643,0.608,�k�k��,9.8,�L
2021/04/05,10:20,0.617,0.898,0.577,1.116,0.791,0.371,0.642,0.608,�k�k��,9.6,�L
2021/04/05,10:30,0.618,0.894,0.578,1.115,0.787,0.372,0.643,0.607,�k�k��,8.8,�L
2021/04/05,10:40,0.615,0.890,0.578,1.106,0.785,0.374,0.641,0.606,�k�k��,11.1,�L
2021/04/05,10:50,0.618,0.890,0.580,1.105,0.784,0.375,0.639,0.605,�k�k��,9.8,�L
2021/04/05,11:00,0.617,0.890,0.582,1.102,0.786,0.375,0.642,0.605,�k�k��,11.6,�L
2021/04/05,11:10,0.616,0.893,0.582,1.102,0.784,0.375,0.642,0.605,�k�k��,10.9,�L
2021/04/05,11:20,0.618,0.893,0.581,1.100,0.786,0.374,0.640,0.607,�k�k��,11.7,�L
2021/04/05,11:30,0.617,0.893,0.578,1.102,0.783,0.375,0.640,0.606,�k�k��,11.3,�L
2021/04/05,11:40,0.616,0.891,0.578,1.101,0.783,0.375,0.639,0.606,�k�k��,10.8,�L
2021/04/05,11:50,0.615,0.887,0.577,1.098,0.784,0.376,0.641,0.603,�k�k��,11.7,�L
2021/04/05,12:00,0.613,0.890,0.577,1.098,0.784,0.375,0.640,0.605,�k��,10.7,�L
2021/04/05,12:10,0.613,0.891,0.577,1.098,0.783,0.374,0.641,0.603,�k�k��,8.0,�L
2021/04/05,12:20,0.613,0.892,0.576,1.099,0.784,0.372,0.641,0.605,�k�k��,7.5,�L
2021/04/05,12:30,0.612,0.890,0.574,1.100,0.782,0.373,0.641,0.605,�k�k��,10.5,�L
2021/04/05,12:40,0.612,0.887,0.575,1.098,0.782,0.372,0.638,0.604,�k�k��,11.0,�L
2021/04/05,12:50,0.612,0.887,0.576,1.099,0.780,0.370,0.638,0.604,�k�k��,11.3,�L
2021/04/05,13:00,0.611,0.886,0.572,1.096,0.780,0.370,0.639,0.606,�k�k��,10.5,�L
2021/04/05,13:10,0.612,0.885,0.573,1.096,0.778,0.369,0.638,0.604,�k�k��,7.7,�L
2021/04/05,13:20,0.609,0.885,0.572,1.097,0.778,0.372,0.639,0.605,�k�k��,8.0,�L
2021/04/05,13:30,0.610,0.884,0.574,1.096,0.779,0.372,0.638,0.605,�k�k��,7.4,�L
2021/04/05,13:40,0.610,0.886,0.573,1.098,0.778,0.371,0.640,0.604,�k�k��,7.5,�L
2021/04/05,13:50,0.612,0.885,0.573,1.095,0.780,0.371,0.640,0.603,�k�k��,8.3,�L
2021/04/05,14:00,0.609,0.887,0.571,1.097,0.779,0.368,0.639,0.603,�k�k��,8.9,�L
2021/04/05,14:10,0.609,0.888,0.571,1.097,0.778,0.368,0.639,0.604,�k�k��,8.5,�L
2021/04/05,14:20,0.609,0.884,0.572,1.098,0.778,0.366,0.639,0.604,�k�k��,9.7,�L
2021/04/05,14:30,0.610,0.886,0.570,1.098,0.779,0.367,0.639,0.603,�k�k��,10.5,�L
2021/04/05,14:40,0.610,0.885,0.569,1.096,0.776,0.367,0.640,0.604,�k�k��,10.2,�L
2021/04/05,14:50,0.609,0.887,0.569,1.095,0.778,0.366,0.638,0.605,�k�k��,9.5,�L
2021/04/05,15:00,0.609,0.888,0.569,1.096,0.777,0.367,0.639,0.603,�k�k��,9.1,�L
2021/04/05,15:10,0.609,0.889,0.569,1.097,0.778,0.365,0.638,0.603,�k�k��,9.8,�L
2021/04/05,15:20,0.609,0.889,0.569,1.098,0.779,0.365,0.640,0.603,�k�k��,9.6,�L
2021/04/05,15:30,0.610,0.887,0.568,1.095,0.780,0.364,0.641,0.603,�k�k��,9.1,�L
2021/04/05,15:40,0.611,0.891,0.571,1.100,0.777,0.364,0.641,0.604,�k�k��,10.9,�L
2021/04/05,15:50,0.610,0.889,0.568,1.099,0.776,0.364,0.639,0.605,�k�k��,9.8,�L
2021/04/05,16:00,0.611,0.889,0.569,1.097,0.779,0.365,0.639,0.605,�k�k��,10.2,�L
2021/04/05,16:10,0.611,0.890,0.569,1.098,0.782,0.364,0.639,0.604,�k�k��,10.2,�L
2021/04/05,16:20,0.608,0.890,0.569,1.100,0.779,0.364,0.639,0.603,�k�k��,9.1,�L
2021/04/05,16:30,0.611,0.891,0.568,1.099,0.779,0.365,0.645,0.605,�k�k��,9.7,�L
2021/04/05,16:40,0.610,0.890,0.571,1.097,0.779,0.365,0.640,0.605,�k�k��,8.4,��
2021/04/05,16:50,0.609,0.891,0.569,1.103,0.780,0.364,0.641,0.604,�k�k��,8.2,�L
2021/04/05,17:00,0.613,0.889,0.570,1.101,0.780,0.365,0.640,0.602,�k�k��,8.0,�L
2021/04/05,17:10,0.610,0.890,0.569,1.099,0.779,0.364,0.640,0.607,�k�k��,7.1,��
2021/04/05,17:20,0.611,0.892,0.569,1.100,0.780,0.363,0.641,0.606,�k,6.2,��
2021/04/05,17:30,0.610,0.891,0.570,1.102,0.780,0.365,0.639,0.603,�k,6.0,��
2021/04/05,17:40,0.610,0.893,0.569,1.101,0.780,0.364,0.640,0.605,�k,7.2,��
2021/04/05,17:50,0.612,0.891,0.571,1.100,0.778,0.364,0.641,0.604,�k,5.6,��
2021/04/05,18:00,0.611,0.893,0.570,1.101,0.780,0.364,0.640,0.605,�k,7.7,��
2021/04/05,18:10,0.610,0.892,0.570,1.100,0.778,0.363,0.638,0.605,�k�k��,7.9,��
2021/04/05,18:20,0.610,0.892,0.571,1.100,0.779,0.364,0.640,0.604,�k�k��,8.5,��
2021/04/05,18:30,0.612,0.892,0.570,1.101,0.778,0.363,0.640,0.606,�k�k��,9.6,��
2021/04/05,18:40,0.613,0.893,0.570,1.102,0.780,0.364,0.639,0.606,�k�k��,9.0,��
2021/04/05,18:50,0.611,0.891,0.570,1.101,0.781,0.363,0.639,0.605,�k�k��,10.6,��
2021/04/05,19:00,0.611,0.893,0.570,1.101,0.782,0.365,0.640,0.605,�k�k��,8.0,��
2021/04/05,19:10,0.614,0.893,0.569,1.103,0.782,0.365,0.641,0.603,�k�k��,7.0,��
2021/04/05,19:20,0.611,0.893,0.570,1.101,0.781,0.365,0.639,0.606,�k�k��,8.2,��
2021/04/05,19:30,0.614,0.892,0.570,1.101,0.781,0.364,0.640,0.605,�k,8.1,��
2021/04/05,19:40,0.611,0.895,0.570,1.103,0.782,0.364,0.640,0.606,�k,5.7,��
2021/04/05,19:50,0.612,0.894,0.570,1.101,0.782,0.364,0.640,0.605,�k,6.7,��
2021/04/05,20:00,0.612,0.894,0.572,1.103,0.781,0.364,0.641,0.606,�k�k��,8.8,��
2021/04/05,20:10,0.612,0.892,0.570,1.103,0.782,0.364,0.639,0.604,�k�k��,11.0,��
2021/04/05,20:20,0.612,0.894,0.571,1.103,0.781,0.363,0.642,0.605,�k�k��,10.8,��
2021/04/05,20:30,0.613,0.895,0.570,1.103,0.781,0.364,0.639,0.606,�k�k��,10.9,��
2021/04/05,20:40,0.613,0.894,0.571,1.103,0.783,0.365,0.640,0.605,�k�k��,10.9,��
2021/04/05,20:50,0.612,0.896,0.570,1.104,0.781,0.364,0.640,0.606,�k�k��,11.3,��
2021/04/05,21:00,0.612,0.895,0.571,1.103,0.782,0.364,0.639,0.605,�k�k��,10.8,��
2021/04/05,21:10,0.614,0.896,0.572,1.105,0.783,0.364,0.641,0.605,�k�k��,10.9,�L
2021/04/05,21:20,0.611,0.899,0.571,1.106,0.784,0.365,0.641,0.604,�k�k��,11.4,��
2021/04/05,21:30,0.613,0.898,0.572,1.103,0.782,0.364,0.642,0.605,�k�k��,11.7,��
2021/04/05,21:40,0.613,0.894,0.573,1.103,0.782,0.365,0.641,0.606,�k�k��,11.1,��
2021/04/05,21:50,0.612,0.894,0.572,1.106,0.785,0.365,0.640,0.606,�k�k��,10.7,��
2021/04/05,22:00,0.614,0.899,0.570,1.105,0.785,0.364,0.640,0.604,�k�k��,10.5,��
2021/04/05,22:10,0.612,0.896,0.570,1.105,0.786,0.365,0.640,0.607,�k�k��,11.1,��
2021/04/05,22:20,0.614,0.896,0.573,1.105,0.786,0.363,0.641,0.605,�k�k��,10.7,��
2021/04/05,22:30,0.612,0.896,0.572,1.107,0.785,0.365,0.640,0.605,�k�k��,11.0,��
2021/04/05,22:40,0.613,0.898,0.572,1.105,0.787,0.364,0.640,0.606,�k�k��,11.6,�L
2021/04/05,22:50,0.615,0.896,0.573,1.105,0.785,0.365,0.641,0.606,�k�k��,11.3,��
2021/04/05,23:00,0.614,0.901,0.572,1.107,0.784,0.366,0.642,0.606,�k�k��,10.2,��
2021/04/05,23:10,0.614,0.898,0.572,1.105,0.785,0.364,0.643,0.605,�k�k��,10.2,��
2021/04/05,23:20,0.615,0.899,0.572,1.109,0.785,0.366,0.641,0.607,�k,10.0,��
2021/04/05,23:30,0.615,0.898,0.574,1.107,0.787,0.365,0.641,0.605,�k�k��,11.4,��
2021/04/05,23:40,0.613,0.897,0.571,1.107,0.786,0.365,0.641,0.605,�k�k��,9.8,��
2021/04/05,23:50,0.614,0.898,0.573,1.109,0.785,0.364,0.643,0.605,�k�k��,9.6,��
